| time (UTC) | temp F | wind direction | speed knots | gust knots | rain 1hr in | rain 24hr in | rain mn in | humidity % | barometer mb |
| 20260503194543 | 85 | 326 | 0.9 | 6.1 | 0.00 | 0.00 | 0.00 | 43 | 1009.5 |
| 20260503193013 | 83 | 299 | 2.6 | 7.0 | 0.00 | 0.00 | 0.00 | 45 | 1009.7 |
| 20260503191511 | 82 | 79 | 0.9 | 6.1 | 0.00 | 0.00 | 0.00 | 47 | 1009.9 |
| 20260503190112 | 80 | 5 | 0.9 | 5.2 | 0.00 | 0.00 | 0.00 | 49 | 1010.1 |
| 20260503184537 | 77 | 303 | 2.6 | 5.2 | 0.00 | 0.00 | 0.00 | 52 | 1010.3 |
| 20260503183007 | 76 | 343 | 2.6 | 6.1 | 0.00 | 0.00 | 0.00 | 54 | 1010.5 |
| 20260503181601 | 74 | 308 | 0.9 | 4.3 | 0.00 | 0.00 | 0.00 | 57 | 1010.6 |
| 20260503180014 | 73 | 284 | 2.6 | 7.0 | 0.00 | 0.00 | 0.00 | 59 | 1010.8 |
| 20260503174521 | 71 | 296 | 0.0 | 5.2 | 0.00 | 0.00 | 0.00 | 63 | 1010.9 |
| 20260503173017 | 70 | 274 | 1.7 | 7.0 | 0.00 | 0.00 | 0.00 | 65 | 1011.1 |
| 20260503171513 | 69 | 335 | 2.6 | 7.8 | 0.00 | 0.00 | 0.00 | 68 | 1011.2 |
| 20260503160107 | 61 | 360 | 0.9 | 4.3 | 0.00 | 0.00 | 0.00 | 83 | 1011.6 |
| 20260503081513 | 57 | 281 | 0.0 | 0.9 | 0.00 | 0.00 | 0.00 | 87 | 1011.9 |
| 20260503071506 | 59 | 281 | 0.0 | 0.0 | 0.00 | 0.00 | 0.00 | 84 | 1012.0 |
| 20260503060109 | 61 | 231 | 0.0 | 0.0 | 0.00 | 0.00 | 0.00 | 80 | 1012.0 |
| 20260503054540 | 62 | 231 | 0.0 | 2.6 | 0.00 | 0.00 | 0.00 | 80 | 1011.9 |
| 20260503053126 | 62 | 352 | 0.0 | 1.7 | 0.00 | 0.00 | 0.00 | 79 | 1011.6 |
| 20260503051551 | 63 | 352 | 0.0 | 3.5 | 0.00 | 0.00 | 0.00 | 78 | 1011.7 |
| 20260503050011 | 63 | 29 | 0.0 | 1.7 | 0.00 | 0.00 | 0.00 | 77 | 1011.9 |
| 20260503044611 | 63 | 67 | 0.0 | 3.5 | 0.00 | 0.00 | 0.00 | 76 | 1012.1 |
| 20260503043030 | 64 | 67 | 1.7 | 4.3 | 0.00 | 0.00 | 0.00 | 75 | 1012.1 |
| 20260503041629 | 64 | 98 | 0.0 | 1.7 | 0.00 | 0.00 | 0.00 | 74 | 1011.9 |
| 20260503040051 | 65 | 98 | 0.0 | 0.0 | 0.00 | 0.00 | 0.00 | 73 | 1011.9 |
| 20260503034513 | 65 | 98 | 0.0 | 2.6 | 0.00 | 0.00 | 0.00 | 72 | 1011.8 |
| 20260503033112 | 66 | 117 | 0.9 | 2.6 | 0.00 | 0.00 | 0.00 | 72 | 1011.8 |
| 20260503031545 | 66 | 238 | 0.0 | 0.9 | 0.00 | 0.00 | 0.00 | 71 | 1011.5 |
| 20260503030013 | 66 | 238 | 0.0 | 3.5 | 0.00 | 0.00 | 0.00 | 69 | 1011.5 |
| 20260503024602 | 67 | 114 | 0.9 | 8.7 | 0.00 | 0.00 | 0.00 | 68 | 1011.5 |
| 20260503023020 | 68 | 240 | 2.6 | 7.8 | 0.00 | 0.00 | 0.00 | 67 | 1011.6 |
| 20260503021619 | 70 | 173 | 2.6 | 13.9 | 0.00 | 0.00 | 0.00 | 64 | 1011.7 |
| 20260503020040 | 71 | 191 | 3.5 | 9.6 | 0.00 | 0.00 | 0.00 | 61 | 1011.2 |
| 20260503014520 | 73 | 242 | 1.7 | 7.0 | 0.00 | 0.00 | 0.00 | 58 | 1010.7 |
| 20260503013117 | 74 | 206 | 0.9 | 3.5 | 0.00 | 0.00 | 0.00 | 55 | 1010.7 |
| 20260503011542 | 75 | 204 | 2.6 | 4.3 | 0.00 | 0.00 | 0.00 | 54 | 1010.5 |
| 20260503010007 | 76 | 289 | 1.7 | 5.2 | 0.00 | 0.00 | 0.00 | 53 | 1010.5 |
| 20260503004606 | 76 | 333 | 1.7 | 5.2 | 0.00 | 0.00 | 0.00 | 52 | 1010.6 |
| 20260503003043 | 77 | 54 | 0.9 | 6.1 | 0.00 | 0.00 | 0.00 | 52 | 1010.6 |
| 20260503001624 | 77 | 296 | 3.5 | 7.0 | 0.00 | 0.00 | 0.00 | 51 | 1010.6 |
| 20260503000050 | 76 | 258 | 2.6 | 7.0 | 0.00 | 0.00 | 0.00 | 52 | 1010.8 |
| 20260502234525 | 76 | 213 | 0.9 | 8.7 | 0.00 | 0.00 | 0.00 | 51 | 1010.9 |
| 20260502233112 | 75 | 146 | 1.7 | 5.2 | 0.00 | 0.00 | 0.00 | 53 | 1011.1 |
| 20260502231532 | 75 | 319 | 1.7 | 8.7 | 0.00 | 0.00 | 0.00 | 53 | 1011.3 |
| 20260502230130 | 75 | 323 | 3.5 | 7.0 | 0.00 | 0.00 | 0.00 | 53 | 1011.5 |
| 20260502224545 | 74 | 275 | 1.7 | 5.2 | 0.00 | 0.00 | 0.00 | 53 | 1011.7 |
| 20260502223032 | 75 | 310 | 2.6 | 7.8 | 0.00 | 0.00 | 0.00 | 53 | 1011.9 |
| 20260502221517 | 75 | 318 | 3.5 | 7.8 | 0.00 | 0.00 | 0.00 | 53 | 1012.2 |
| 20260502220018 | 73 | 58 | 0.9 | 4.3 | 0.00 | 0.00 | 0.00 | 57 | 1012.4 |
| 20260502214511 | 73 | 334 | 2.6 | 7.0 | 0.00 | 0.00 | 0.00 | 54 | 1012.6 |
| 20260502213009 | 72 | 37 | 1.7 | 5.2 | 0.00 | 0.00 | 0.00 | 55 | 1012.9 |
| 20260502211505 | 71 | 52 | 3.5 | 7.0 | 0.00 | 0.00 | 0.00 | 59 | 1013.1 |
| 20260502210006 | 70 | 310 | 1.7 | 5.2 | 0.00 | 0.00 | 0.00 | 60 | 1013.2 |
| 20260502204558 | 69 | 207 | 2.6 | 6.1 | 0.00 | 0.00 | 0.00 | 59 | 1013.7 |
| 20260502203054 | 67 | 59 | 0.9 | 4.3 | 0.00 | 0.00 | 0.00 | 65 | 1013.9 |
| 20260502201549 | 65 | 325 | 1.7 | 4.3 | 0.00 | 0.00 | 0.00 | 65 | 1014.1 |
| 20260502200051 | 65 | 280 | 0.0 | 6.1 | 0.00 | 0.00 | 0.00 | 66 | 1014.2 |